Year,Month,Day,Hour,Minute,Value (Times are PST for temperature in C)
2015,02,20,00,00,8.00
2015,02,20,00,01,8.00
2015,02,20,00,02,8.00
2015,02,20,00,03,8.00
2015,02,20,00,04,8.00
2015,02,20,00,05,8.00
2015,02,20,00,06,8.00
2015,02,20,00,07,8.00
2015,02,20,00,08,8.00
2015,02,20,00,09,7.90
2015,02,20,00,10,7.90
2015,02,20,00,11,7.90
2015,02,20,00,12,7.90
2015,02,20,00,13,7.90
2015,02,20,00,14,7.90
2015,02,20,00,15,7.90
2015,02,20,00,16,7.90
2015,02,20,00,17,8.00
2015,02,20,00,18,8.00
2015,02,20,00,19,8.00
2015,02,20,00,20,8.00
2015,02,20,00,21,8.00
2015,02,20,00,22,8.00
2015,02,20,00,23,8.00
2015,02,20,00,24,8.00
2015,02,20,00,25,8.00
2015,02,20,00,26,8.00
2015,02,20,00,27,8.00
2015,02,20,00,28,8.00
2015,02,20,00,29,8.00
2015,02,20,00,30,8.00
2015,02,20,00,31,8.00
2015,02,20,00,32,8.00
2015,02,20,00,33,8.10
2015,02,20,00,34,8.10
2015,02,20,00,35,8.10
2015,02,20,00,36,8.10
2015,02,20,00,37,8.10
2015,02,20,00,38,8.10
2015,02,20,00,39,8.10
2015,02,20,00,40,8.10
2015,02,20,00,41,8.10
2015,02,20,00,42,8.10
2015,02,20,00,43,8.10
2015,02,20,00,44,8.20
2015,02,20,00,45,8.20
2015,02,20,00,46,8.20
2015,02,20,00,47,8.20
2015,02,20,00,48,8.20
2015,02,20,00,49,8.20
2015,02,20,00,50,8.20
2015,02,20,00,51,8.20
2015,02,20,00,52,8.20
2015,02,20,00,53,8.20
2015,02,20,00,54,8.20
2015,02,20,00,55,8.20
2015,02,20,00,56,8.20
2015,02,20,00,57,8.20
2015,02,20,00,58,8.10
2015,02,20,00,59,8.10
2015,02,20,01,00,8.10
2015,02,20,01,01,8.10
2015,02,20,01,02,8.10
2015,02,20,01,03,8.10
2015,02,20,01,04,8.10
2015,02,20,01,05,8.10
2015,02,20,01,06,8.10
2015,02,20,01,07,8.10
2015,02,20,01,08,8.10
2015,02,20,01,09,8.10
2015,02,20,01,10,8.10
2015,02,20,01,11,8.10
2015,02,20,01,12,8.10
2015,02,20,01,13,8.10
2015,02,20,01,14,8.10
2015,02,20,01,15,8.10
2015,02,20,01,16,8.10
2015,02,20,01,17,8.10
2015,02,20,01,18,8.10
2015,02,20,01,19,8.10
2015,02,20,01,20,8.10
2015,02,20,01,21,8.10
2015,02,20,01,22,8.10
2015,02,20,01,23,8.00
2015,02,20,01,24,8.00
2015,02,20,01,25,8.00
2015,02,20,01,26,8.00
2015,02,20,01,27,8.00
2015,02,20,01,28,8.00
2015,02,20,01,29,8.00
2015,02,20,01,30,8.00
2015,02,20,01,31,8.00
2015,02,20,01,32,8.00
2015,02,20,01,33,8.00
2015,02,20,01,34,8.00
2015,02,20,01,35,8.00
2015,02,20,01,36,8.00
2015,02,20,01,37,8.00
2015,02,20,01,38,8.00
2015,02,20,01,39,8.00
2015,02,20,01,40,8.00
2015,02,20,01,41,8.00
2015,02,20,01,42,8.00
2015,02,20,01,43,8.00
2015,02,20,01,44,8.00
2015,02,20,01,45,8.00
2015,02,20,01,46,7.90
2015,02,20,01,47,7.90
2015,02,20,01,48,7.90
2015,02,20,01,49,7.90
2015,02,20,01,50,7.90
2015,02,20,01,51,7.90
2015,02,20,01,52,7.90
2015,02,20,01,53,7.90
2015,02,20,01,54,7.90
2015,02,20,01,55,7.90
2015,02,20,01,56,7.90
2015,02,20,01,57,7.90
2015,02,20,01,58,7.90
2015,02,20,01,59,7.90
2015,02,20,02,00,7.90
2015,02,20,02,01,7.90
2015,02,20,02,02,7.90
2015,02,20,02,03,7.90
2015,02,20,02,04,7.90
2015,02,20,02,05,7.90
2015,02,20,02,06,7.90
2015,02,20,02,07,7.90
2015,02,20,02,08,7.90
2015,02,20,02,09,7.90
2015,02,20,02,10,7.90
2015,02,20,02,11,7.90
2015,02,20,02,12,7.90
2015,02,20,02,13,7.90
2015,02,20,02,14,7.90
2015,02,20,02,15,7.90
2015,02,20,02,16,7.80
2015,02,20,02,17,7.80
2015,02,20,02,18,7.80
2015,02,20,02,19,7.80
2015,02,20,02,20,7.80
2015,02,20,02,21,7.80
2015,02,20,02,22,7.80
2015,02,20,02,23,7.80
2015,02,20,02,24,7.80
2015,02,20,02,25,7.80
2015,02,20,02,26,7.80
2015,02,20,02,27,7.80
2015,02,20,02,28,7.80
2015,02,20,02,29,7.80
2015,02,20,02,30,7.80
2015,02,20,02,31,7.80
2015,02,20,02,32,7.80
2015,02,20,02,33,7.80
2015,02,20,02,34,7.80
2015,02,20,02,35,7.80
2015,02,20,02,36,7.80
2015,02,20,02,37,7.80
2015,02,20,02,38,7.80
2015,02,20,02,39,7.80
2015,02,20,02,40,7.80
2015,02,20,02,41,7.70
2015,02,20,02,42,7.70
2015,02,20,02,43,7.70
2015,02,20,02,44,7.70
2015,02,20,02,45,7.70
2015,02,20,02,46,7.70
2015,02,20,02,47,7.70
2015,02,20,02,48,7.70
2015,02,20,02,49,7.70
2015,02,20,02,50,7.70
2015,02,20,02,51,7.70
2015,02,20,02,52,7.70
2015,02,20,02,53,7.70
2015,02,20,02,54,7.70
2015,02,20,02,55,7.60
2015,02,20,02,56,7.60
2015,02,20,02,57,7.60
2015,02,20,02,58,7.60
2015,02,20,02,59,7.70
2015,02,20,03,00,7.70
2015,02,20,03,01,7.70
2015,02,20,03,02,7.70
2015,02,20,03,03,7.70
2015,02,20,03,04,7.70
2015,02,20,03,05,7.70
2015,02,20,03,06,7.70
2015,02,20,03,07,7.70
2015,02,20,03,08,7.70
2015,02,20,03,09,7.70
2015,02,20,03,10,7.70
2015,02,20,03,11,7.70
2015,02,20,03,12,7.70
2015,02,20,03,13,7.70
2015,02,20,03,14,7.70
2015,02,20,03,15,7.70
2015,02,20,03,16,7.70
2015,02,20,03,17,7.70
2015,02,20,03,18,7.70
2015,02,20,03,19,7.70
2015,02,20,03,20,7.70
2015,02,20,03,21,7.70
2015,02,20,03,22,7.70
2015,02,20,03,23,7.70
2015,02,20,03,24,7.70
2015,02,20,03,25,7.70
2015,02,20,03,26,7.70
2015,02,20,03,27,7.70
2015,02,20,03,28,7.70
2015,02,20,03,29,7.70
2015,02,20,03,30,7.70
2015,02,20,03,31,7.70
2015,02,20,03,32,7.70
2015,02,20,03,33,7.70
2015,02,20,03,34,7.70
2015,02,20,03,35,7.80
2015,02,20,03,36,7.80
2015,02,20,03,37,7.80
2015,02,20,03,38,7.80
2015,02,20,03,39,7.80
2015,02,20,03,40,7.80
2015,02,20,03,41,7.80
2015,02,20,03,42,7.80
2015,02,20,03,43,7.80
2015,02,20,03,44,7.80
2015,02,20,03,45,7.80
2015,02,20,03,46,7.80
2015,02,20,03,47,7.80
2015,02,20,03,48,7.80
2015,02,20,03,49,7.80
2015,02,20,03,50,7.80
2015,02,20,03,51,7.80
2015,02,20,03,52,7.80
2015,02,20,03,53,7.80
2015,02,20,03,54,7.80
2015,02,20,03,55,7.80
2015,02,20,03,56,7.80
2015,02,20,03,57,7.80
2015,02,20,03,58,7.80
2015,02,20,03,59,7.80
2015,02,20,04,00,7.80
2015,02,20,04,01,7.80
2015,02,20,04,02,7.80
2015,02,20,04,03,7.80
2015,02,20,04,04,7.80
2015,02,20,04,05,7.80
2015,02,20,04,06,7.80
2015,02,20,04,07,7.80
2015,02,20,04,08,7.80
2015,02,20,04,09,7.80
2015,02,20,04,10,7.80
2015,02,20,04,11,7.80
2015,02,20,04,12,7.80
2015,02,20,04,13,7.80
2015,02,20,04,14,7.80
2015,02,20,04,15,7.80
2015,02,20,04,16,7.80
2015,02,20,04,17,7.80
2015,02,20,04,18,7.80
2015,02,20,04,19,7.80
2015,02,20,04,20,7.80
2015,02,20,04,21,7.80
2015,02,20,04,22,7.80
2015,02,20,04,23,7.80
2015,02,20,04,24,7.80
2015,02,20,04,25,7.80
2015,02,20,04,26,7.80
2015,02,20,04,27,7.70
2015,02,20,04,28,7.70
2015,02,20,04,29,7.70
2015,02,20,04,30,7.70
2015,02,20,04,31,7.70
2015,02,20,04,32,7.70
2015,02,20,04,33,7.70
2015,02,20,04,34,7.70
2015,02,20,04,35,7.70
2015,02,20,04,36,7.70
2015,02,20,04,37,7.70
2015,02,20,04,38,7.70
2015,02,20,04,39,7.70
2015,02,20,04,40,7.70
2015,02,20,04,41,7.70
2015,02,20,04,42,7.70
2015,02,20,04,43,7.70
2015,02,20,04,44,7.70
2015,02,20,04,45,7.70
2015,02,20,04,46,7.70
2015,02,20,04,47,7.70
2015,02,20,04,48,7.70
2015,02,20,04,49,7.70
2015,02,20,04,50,7.70
2015,02,20,04,51,7.70
2015,02,20,04,52,7.70
2015,02,20,04,53,7.70
2015,02,20,04,54,7.70
2015,02,20,04,55,7.70
2015,02,20,04,56,7.70
2015,02,20,04,57,7.70
2015,02,20,04,58,7.70
2015,02,20,04,59,7.70
2015,02,20,05,00,7.70
2015,02,20,05,01,7.70
2015,02,20,05,02,7.70
2015,02,20,05,03,7.70
2015,02,20,05,04,7.70
2015,02,20,05,05,7.70
2015,02,20,05,06,7.70
2015,02,20,05,07,7.70
2015,02,20,05,08,7.70
2015,02,20,05,09,7.70
2015,02,20,05,10,7.70
2015,02,20,05,11,7.70
2015,02,20,05,12,7.70
2015,02,20,05,13,7.70
2015,02,20,05,14,7.70
2015,02,20,05,15,7.70
2015,02,20,05,16,7.70
2015,02,20,05,17,7.70
2015,02,20,05,18,7.70
2015,02,20,05,19,7.70
2015,02,20,05,20,7.70
2015,02,20,05,21,7.70
2015,02,20,05,22,7.70
2015,02,20,05,23,7.70
2015,02,20,05,24,7.70
2015,02,20,05,25,7.70
2015,02,20,05,26,7.70
2015,02,20,05,27,7.70
2015,02,20,05,28,7.70
2015,02,20,05,29,7.70
2015,02,20,05,30,7.60
2015,02,20,05,31,7.60
2015,02,20,05,32,7.60
2015,02,20,05,33,7.60
2015,02,20,05,34,7.60
2015,02,20,05,35,7.60
2015,02,20,05,36,7.60
2015,02,20,05,37,7.60
2015,02,20,05,38,7.60
2015,02,20,05,39,7.60
2015,02,20,05,40,7.70
2015,02,20,05,41,7.70
2015,02,20,05,42,7.70
2015,02,20,05,43,7.70
2015,02,20,05,44,7.70
2015,02,20,05,45,7.60
2015,02,20,05,46,7.60
2015,02,20,05,47,7.60
2015,02,20,05,48,7.60
2015,02,20,05,49,7.60
2015,02,20,05,50,7.60
2015,02,20,05,51,7.60
2015,02,20,05,52,7.60
2015,02,20,05,53,7.60
2015,02,20,05,54,7.60
2015,02,20,05,55,7.60
2015,02,20,05,56,7.60
2015,02,20,05,57,7.60
2015,02,20,05,58,7.60
2015,02,20,05,59,7.60
2015,02,20,06,00,7.60
2015,02,20,06,01,7.60
2015,02,20,06,02,7.50
2015,02,20,06,03,7.50
2015,02,20,06,04,7.50
2015,02,20,06,05,7.50
2015,02,20,06,06,7.50
2015,02,20,06,07,7.50
2015,02,20,06,08,7.50
2015,02,20,06,09,7.50
2015,02,20,06,10,7.50
2015,02,20,06,11,7.50
2015,02,20,06,12,7.50
2015,02,20,06,13,7.50
2015,02,20,06,14,7.50
2015,02,20,06,15,7.50
2015,02,20,06,16,7.50
2015,02,20,06,17,7.60
2015,02,20,06,18,7.60
2015,02,20,06,19,7.60
2015,02,20,06,20,7.60
2015,02,20,06,21,7.60
2015,02,20,06,22,7.60
2015,02,20,06,23,7.60
2015,02,20,06,24,7.60
2015,02,20,06,25,7.60
2015,02,20,06,26,7.60
2015,02,20,06,27,7.60
2015,02,20,06,28,7.60
2015,02,20,06,29,7.60
